Clayton Lake, ME

1:41 PM EDT on May 26, 2017 (GMT -0400)
Clayton Lake

Weather History for K40B - January, 2013

Change the Weather History Date:

Sunday, January 6, 2013

  Actual Average Record
Temperature  
Mean Temperature 4 °F -  
Max Temperature 19 °F 19 °F 32 °F (2002)
Min Temperature -10 °F 0 °F -27 °F (1999)
Degree Days  
Heating Degree Days 60    
Moisture  
Dew Point 5 °F    
Average Humidity 86    
Maximum Humidity 92    
Minimum Humidity 81    
Precipitation  
Precipitation 0.33 in - - ()
Sea Level Pressure  
Sea Level Pressure 30.08 in    
Wind  
Wind Speed 1 mph (North)    
Max Wind Speed 6 mph    
Max Gust Speed 15 mph    
Averages and records for this station are not official NWS values.
T = Trace of Precipitation, MM = Missing Value Source: NWS Daily Summary

Daily Weather History Graph

Daily Weather History Graph

Search for Another Location

Airport or City:

Trip Planner

Search our weather history database for the weather conditions in past years. The results will help you decide how hot, cold, wet, or windy it might be!

Date:

Astronomy

Jan. 06, 2013 Rise Set
Actual Time 7:21 AM EST 4:06 PM EST
Civil Twilight 6:47 AM EST 4:41 PM EST
Nautical Twilight 6:09 AM EST 5:19 PM EST
Astronomical Twilight 5:32 AM EST 5:55 PM EST
Moon 1:23 AM EST (1/6) 11:38 AM EST (1/6)
Length of Visible Light 9h 54m
Length of Day
8h 44m
Waning Crescent, 33% of the Moon is Illuminated
Jan 6
Waning Crescent
Jan 11
New
Jan 18
First Quarter
Jan 26
Full
Feb 3
Last Quarter

Hourly Weather History & Observations

Time (EST) Temp. Windchill Dew Point Humidity Pressure Visibility Wind Dir Wind Speed Gust Speed Precip Events Conditions
12:25 AM -10.3 °F - -14.8 °F 81% 30.25 in - Calm Calm - 0.02 in   Unknown
1:25 AM -9.0 °F - -13.5 °F 81% 30.24 in - Calm Calm - 0.02 in   Unknown
2:25 AM -7.1 °F - -11.0 °F 83% 30.22 in - Calm Calm - 0.01 in   Unknown
3:25 AM -6.5 °F - -10.3 °F 84% 30.20 in - Calm Calm - 0.02 in   Unknown
4:25 AM 1.8 °F - -1.5 °F 86% 30.17 in - Calm Calm - 0.01 in   Unknown
5:25 AM 2.8 °F - -0.6 °F 86% 30.13 in - Calm Calm - 0.00 in   Unknown
6:25 AM 4.8 °F - 1.0 °F 84% 30.13 in - Calm Calm - 0.01 in   Unknown
7:25 AM 3.9 °F - -0.0 °F 84% 30.12 in - Variable 2.3 mph - N/A   Unknown
8:25 AM 7.2 °F - 4.5 °F 89% 30.11 in - Calm Calm - 0.01 in   Unknown
9:25 AM 8.4 °F - 5.0 °F 86% 30.11 in - Variable 2.3 mph - 0.02 in   Unknown
10:25 AM 11.1 °F - 7.7 °F 86% 30.08 in - Calm Calm - 0.03 in   Unknown
11:26 AM 15.1 °F - 10.8 °F 83% 30.03 in - Variable 2.3 mph - 0.03 in   Unknown
12:28 PM 17.2 °F - 13.6 °F 86% 29.99 in - Variable 2.3 mph - 0.01 in   Unknown
1:25 PM 18.9 °F 13.7 °F 14.7 °F 84% 29.96 in - Variable 3.5 mph - 0.01 in   Unknown
2:25 PM 19.4 °F - 16.0 °F 87% 29.96 in - Variable 2.3 mph - N/A   Unknown
3:25 PM 19.2 °F - 16.7 °F 90% 29.96 in - Calm Calm - N/A   Unknown
4:25 PM 18.9 °F - 16.7 °F 91% 29.96 in - Calm Calm - N/A   Unknown
5:25 PM 18.0 °F 11.1 °F 16.0 °F 92% 29.97 in - Variable 4.6 mph - 0.00 in   Unknown
6:25 PM 15.8 °F 7.2 °F 12.9 °F 88% 29.99 in - Variable 5.8 mph 15.0 mph 0.02 in   Unknown
7:25 PM 13.8 °F 6.2 °F 10.9 °F 88% 30.02 in - Variable 4.6 mph - 0.02 in   Unknown
8:25 PM 12.4 °F 4.6 °F 9.3 °F 88% 30.03 in - Variable 4.6 mph - N/A   Unknown
9:25 PM 11.1 °F 3.1 °F 8.4 °F 89% 30.04 in - Variable 4.6 mph - 0.06 in   Unknown
10:25 PM 9.7 °F 3.2 °F 6.8 °F 88% 30.07 in - Variable 3.5 mph - N/A   Unknown
11:25 PM 8.4 °F -0.1 °F 5.2 °F 87% 30.09 in - Variable 4.6 mph - 0.05 in   Unknown